Regional Weather Roundup
Issued by NWS Little Rock, AR

Home | Current Version | Previous Version | Graphics & Text | Print | Product List | Glossary On
Versions: 1 2 3 4 5 6 7 8 9 10 11 12 13 14 15 16 17 18 19 20 21 22 23 24 25 26 27 28 29 30 31 32
000
ASUS44 KLZK 160012
RWRLZK

WEATHER ROUNDUP FOR ARKANSAS
NATIONAL WEATHER SERVICE LITTLE ROCK AR
700 PM CDT TUE AUG 15 2017

NOTE: "FAIR" INDICATES FEW OR NO CLOUDS BELOW 12,000 FEET WITH NO
SIGNIFICANT WEATHER AND/OR OBSTRUCTIONS TO VISIBILITY.

ARZ001-003-010-029-160100-
NORTHWEST ARKANSAS

CITY           SKY/WX    TMP DP  RH WIND       PRES   REMARKS
FAYETTEVILLE   CLOUDY    82  76  81 S3        29.86R HX  89
6HR MIN TEMP:  82; 6HR MAX TEMP:  87;

FORT SMITH     SUNNY     88  74  63 S5        29.81R HX  96
6HR MIN TEMP:  87; 6HR MAX TEMP:  93;

HARRISON       PTSUNNY   81  75  82 SE6       29.88R HX  87
6HR MIN TEMP:  81; 6HR MAX TEMP:  89;

BENTONVILLE    CLOUDY    82  73  74 CALM      29.87S HX  88
6HR MIN TEMP:  82; 6HR MAX TEMP:  88;

ROGERS         CLOUDY    83  76  79 SE5       29.88R HX  91
6HR MIN TEMP:  82; 6HR MAX TEMP:  89;

SILOAM SPGS    CLOUDY    82  73  74 SE3       29.85R HX  88
6HR MIN TEMP:  82; 6HR MAX TEMP:  88;

HIGHFILL       CLOUDY    84  76  76 CALM      29.87R HX  93
6HR MIN TEMP:  83; 6HR MAX TEMP:  88;

SPRINGDALE     MOSUNNY   84  75  74 S6        29.88R HX  92
$$

ARZ004-005-016-160100-
NORTH CENTRAL ARKANSAS

CITY           SKY/WX    TMP DP  RH WIND       PRES   REMARKS
BATESVILLE     PTSUNNY   84  75  74 E8        29.88R HX  92
6HR MIN TEMP:  81; 6HR MAX TEMP:  88;

FLIPPIN        MOSUNNY   81  72  74 E3        29.84R
6HR MIN TEMP:  75; 6HR MAX TEMP:  84; 6HR PCP:  0.49;

MTN HOME       PTSUNNY   80  76  87 SE6       29.86R HX  86
6HR MIN TEMP:  77; 6HR MAX TEMP:  84; 6HR PCP:  0.01;

$$

ARZ040-041-160100-
WEST CENTRAL ARKANSAS

CITY           SKY/WX    TMP DP  RH WIND       PRES   REMARKS
MENA           SUNNY     84  82  94 CALM      29.87S HX 101
MOUNT IDA      CLOUDY    85  72  65 CALM      29.85R HX  91
6HR MIN TEMP:  80; 6HR MAX TEMP:  90; 6HR PCP: TRACE;

$$

ARZ009-017-025-026-028-160100-
NORTHEAST ARKANSAS

CITY           SKY/WX    TMP DP  RH WIND       PRES   REMARKS
JONESBORO      CLEAR     82  76  81 S6        29.88R HX  89
6HR MIN TEMP:  79; 6HR MAX TEMP:  84;

NEWPORT        CLEAR     82  76  81 SE6       29.88R HX  89
6HR MIN TEMP:  79; 6HR MAX TEMP:  85;

WALNUT RIDGE   CLOUDY    81  73  78 SE5       29.88R HX  85
6HR MIN TEMP:  79; 6HR MAX TEMP:  84;

BLYTHEVILLE    CLEAR     82  75  79 SE3       29.90R HX  89
6HR MIN TEMP:  74; 6HR MAX TEMP:  84; 6HR PCP:  0.02;

$$

ARZ022-023-033-042-044-160100-
CENTRAL ARKANSAS

CITY           SKY/WX    TMP DP  RH WIND       PRES   REMARKS
LITTLE ROCK    MOSUNNY   85  76  74 S7        29.86R HX  94
6HR MIN TEMP:  81; 6HR MAX TEMP:  89;

N LITTLE ROCK    N/A     86  74  69 S8        29.87R HX  94
6HR MIN TEMP:  81; 6HR MAX TEMP:  88;

JACKSONVILLE   SUNNY     88  78  72 SE5       29.86R HX 101
6HR MIN TEMP:  82; 6HR MAX TEMP:  90; 6HR PCP: TRACE;

CONWAY           N/A     86  79  79 SE7       29.83R HX  99
SEARCY           N/A    N/A N/A N/A MISG        N/A
HOT SPRINGS    MOSUNNY   88  76  67 S8        29.86R HX  99
6HR MIN TEMP:  87; 6HR MAX TEMP:  91;

RUSSELLVILLE   SUNNY     86  79  79 E5        29.82S HX  99
6HR MIN TEMP:  84; 6HR MAX TEMP:  90;

CLINTON        FAIR      86  77  74 SE3       29.85S HX  97
$$

ARZ036-160100-
EAST ARKANSAS

CITY           SKY/WX    TMP DP  RH WIND       PRES   REMARKS
WEST MEMPHIS   CLOUDY    84  76  76 S3        29.88R HX  93
6HR MIN TEMP:  81; 6HR MAX TEMP:  86;

$$

ARZ050-053-066-070-073-160100-
SOUTHWEST ARKANSAS

CITY           SKY/WX    TMP DP  RH WIND       PRES   REMARKS
ARKADELPHIA    FAIR      88  78  72 CALM      29.85S HX 101
6HR MIN TEMP:  84; 6HR MAX TEMP:  91;

CAMDEN         SUNNY     90  73  58 SE5       29.85R HX  98
TEXARKANA      SUNNY     87  74  64 S7        29.84R HX  95
6HR MIN TEMP:  84; 6HR MAX TEMP:  91;

EL DORADO      SUNNY     89  73  59 S6        29.86S HX  97
6HR MIN TEMP:  88; 6HR MAX TEMP:  92;

DE QUEEN       CLOUDY    88  77  69 CALM      29.81R HX 100
6HR MIN TEMP:  84; 6HR MAX TEMP:  90;

$$

ARZ056-057-069-160100-
SOUTHEAST ARKANSAS

CITY           SKY/WX    TMP DP  RH WIND       PRES   REMARKS
PINE BLUFF     SUNNY     88  75  65 S8        29.87R HX  97
6HR MIN TEMP:  86; 6HR MAX TEMP:  91;

MONTICELLO     CLEAR     89  75  63 S5        29.88R HX  99
6HR MIN TEMP:  87; 6HR MAX TEMP:  92;


$$






USA.gov is the U.S. government's official web portal to all federal, state and local government web resources and services.